Flag for U.S.A. Weather past 2 weeks in Santa Barbara, California, U.S.A.

Now
60 °F

Clear.


Feels Like: 60 °F
Forecast: 55 / 71 °F
Wind: No wind

Location: Santa Barbara Municipal Airport

Current Time: Mar 28, 2015 at 10:28:41 PM

Latest Report: Mar 28, 2015 at 9:53 PM


Visibility: 9 mi

Pressure: 30.03 "Hg

Humidity: 86%

Dew point: 56 °F

Location of Santa BarbaraLocation

Historic Weather in Santa Barbara — Graph

°F

Santa Barbara temperature yesterday

Maximum temperature yesterday: 77 °F (at 2:53 PM)
Minimum temperature yesterday: 53 °F (at 6:53 AM)
Average temperature yesterday: 63 °F

Past Weeks' High & Low Weather Summary

 TemperatureHumidityPressure
High87 °F (Mar 14, 3:53 PM)96% (Mar 21, 1:53 AM)30.19 "Hg (Mar 21, 1:53 AM)
Low51 °F (Mar 26, 4:53 AM)16% (Mar 14, 4:53 PM)29.86 "Hg (Mar 16, 5:53 PM)
Average65 °F67%30.02 "Hg
* Reported Mar 13 8:53 PM — Mar 28 8:53 PM, Santa Barbara, Weather by CustomWeather, © 2015

Note: Actual official high and low records may vary slightly from our data, if they occured in-between our weather recording intervals... More about our weather records

Advertising

Santa Barbara weather history for previous 24 hours

 ConditionsComfort  
Time TempWeatherWind HumidityBarometerVisibility
8:53 PM
Sat, Mar 28
60 °FClear.No wind90%30.02 "Hg9 mi
7:53 PM61 °FSunny.3 mph90%30.00 "Hg9 mi
6:53 PM65 °FSunny.3 mph76%30.00 "Hg10 mi
5:53 PM70 °FSunny.6 mph53%30.00 "Hg10 mi
4:53 PM70 °FSunny.7 mph57%30.00 "Hg10 mi
3:53 PM69 °FSunny.7 mph61%30.01 "Hg10 mi
2:53 PM68 °FSunny.6 mph65%30.02 "Hg9 mi
1:53 PM69 °FSunny.6 mph63%30.04 "Hg10 mi
12:53 PM68 °FSunny.7 mph65%30.06 "Hg10 mi
11:53 AM66 °FSunny.7 mph70%30.08 "Hg10 mi
10:53 AM66 °FSunny.7 mph68%30.08 "Hg10 mi
9:53 AM63 °FSunny.5 mph81%30.08 "Hg10 mi
8:53 AM63 °FSunny.8 mph75%30.07 "Hg10 mi
7:53 AM60 °FSunny.No wind80%30.05 "Hg10 mi
6:53 AM57 °FClear.6 mph83%30.02 "Hg10 mi
5:53 AM57 °FClear.8 mph90%30.02 "Hg10 mi
4:53 AM57 °FClear.6 mph90%30.01 "Hg9 mi
3:53 AM57 °FClear.6 mph90%30.01 "Hg10 mi
2:53 AM55 °FClear.No wind93%30.02 "Hg10 mi
1:53 AM57 °FClear.3 mph90%30.02 "Hg10 mi
12:53 AM59 °FClear.3 mph90%30.03 "Hg10 mi
11:53 PM
Fri, Mar 27
58 °FClear.3 mph90%30.03 "Hg9 mi
10:53 PM58 °FClear.No wind93%30.03 "Hg8 mi
Weather by CustomWeather, © 2015

See weather overviewHow to use our weather pages